Time,TemperatureF,DewpointF,PressureIn,WindDirection,WindDirectionDegrees,WindSpeedMPH,WindSpeedGustMPH,Humidity,HourlyPrecipIn,Conditions,Clouds,dailyrainin,SoftwareType,DateUTC
2013-03-11 00:03:00,47.5,27.2,30.00,East,86,0.0,0.0,45,0.00,,---,0.00,VWS V14.00,2013-03-11 07:03:00,
2013-03-11 00:09:00,47.3,27.0,30.00,East,87,0.0,0.0,45,0.00,,---,0.00,VWS V14.00,2013-03-11 07:09:00,
2013-03-11 00:14:00,47.3,27.0,30.00,East,87,0.0,0.0,45,0.00,,---,0.00,VWS V14.00,2013-03-11 07:14:00,
2013-03-11 00:20:00,47.1,27.4,30.00,East,86,0.0,0.0,46,0.00,,---,0.00,VWS V14.00,2013-03-11 07:20:00,
2013-03-11 00:25:00,46.4,26.8,30.00,East,86,0.0,0.0,46,0.00,,---,0.00,VWS V14.00,2013-03-11 07:25:00,
2013-03-11 00:31:00,46.2,27.1,30.00,East,86,0.0,0.0,47,0.00,,---,0.00,VWS V14.00,2013-03-11 07:31:00,
2013-03-11 00:36:00,46.0,27.0,30.00,East,86,0.0,0.0,47,0.00,,---,0.00,VWS V14.00,2013-03-11 07:36:00,
2013-03-11 00:41:00,45.7,26.6,30.00,East,87,0.0,0.0,47,0.00,,---,0.00,VWS V14.00,2013-03-11 07:41:00,
2013-03-11 00:46:00,45.5,27.0,30.00,East,86,0.0,0.0,48,0.00,,---,0.00,VWS V14.00,2013-03-11 07:46:00,
2013-03-11 00:52:00,45.3,26.8,30.00,East,80,2.7,3.1,48,0.00,,---,0.00,VWS V14.00,2013-03-11 07:52:00,
2013-03-11 00:57:00,45.3,26.8,30.00,East,95,2.2,2.2,48,0.00,,---,0.00,VWS V14.00,2013-03-11 07:57:00,
2013-03-11 01:02:00,45.3,26.8,30.00,East,95,0.0,0.0,48,0.00,,---,0.00,VWS V14.00,2013-03-11 08:02:00,
2013-03-11 01:07:00,45.3,26.8,30.00,East,95,0.0,0.0,48,0.00,,---,0.00,VWS V14.00,2013-03-11 08:07:00,
2013-03-11 01:13:00,45.1,26.6,30.00,East,95,0.0,0.0,48,0.00,,---,0.00,VWS V14.00,2013-03-11 08:13:00,
2013-03-11 01:19:00,44.8,26.8,30.00,East,95,0.0,0.0,49,0.00,,---,0.00,VWS V14.00,2013-03-11 08:19:00,
2013-03-11 01:24:00,44.6,26.6,30.00,East,95,0.0,0.0,49,0.00,,---,0.00,VWS V14.00,2013-03-11 08:24:00,
2013-03-11 01:29:00,44.4,26.5,30.00,East,95,0.0,0.0,49,0.00,,---,0.00,VWS V14.00,2013-03-11 08:29:00,
2013-03-11 01:34:00,44.2,26.3,30.00,East,95,0.0,0.0,49,0.00,,---,0.00,VWS V14.00,2013-03-11 08:34:00,
2013-03-11 01:39:00,44.1,26.6,30.00,East,95,0.0,0.0,50,0.00,,---,0.00,VWS V14.00,2013-03-11 08:39:00,
2013-03-11 01:45:00,44.1,26.6,30.00,East,95,0.0,0.0,50,0.00,,---,0.00,VWS V14.00,2013-03-11 08:45:00,
2013-03-11 01:52:00,44.1,26.6,30.00,East,95,0.0,0.0,50,0.00,,---,0.00,VWS V14.00,2013-03-11 08:52:00,
2013-03-11 01:57:00,44.2,26.8,30.00,East,95,0.0,0.0,50,0.00,,---,0.00,VWS V14.00,2013-03-11 08:57:00,
2013-03-11 02:02:00,44.2,26.8,30.00,East,95,0.0,0.0,50,0.00,,---,0.00,VWS V14.00,2013-03-11 09:02:00,
2013-03-11 02:07:00,44.1,26.6,30.00,East,95,0.0,0.0,50,0.00,,---,0.00,VWS V14.00,2013-03-11 09:07:00,
2013-03-11 02:13:00,43.9,26.9,30.00,East,95,0.0,0.0,51,0.00,,---,0.00,VWS V14.00,2013-03-11 09:13:00,
2013-03-11 02:19:00,43.7,26.8,30.00,East,95,0.0,0.0,51,0.00,,---,0.00,VWS V14.00,2013-03-11 09:19:00,
2013-03-11 02:24:00,43.3,26.4,30.00,East,95,0.0,0.0,51,0.00,,---,0.00,VWS V14.00,2013-03-11 09:24:00,
2013-03-11 02:30:00,43.3,26.4,30.00,East,95,0.0,0.0,51,0.00,,---,0.00,VWS V14.00,2013-03-11 09:30:00,
2013-03-11 02:35:00,43.3,26.4,30.00,East,95,0.0,0.0,51,0.00,,---,0.00,VWS V14.00,2013-03-11 09:35:00,
2013-03-11 02:41:00,43.0,26.1,30.00,East,96,0.0,0.0,51,0.00,,---,0.00,VWS V14.00,2013-03-11 09:41:00,
2013-03-11 02:46:00,42.6,26.2,30.00,East,95,0.0,0.0,52,0.00,,---,0.00,VWS V14.00,2013-03-11 09:46:00,
2013-03-11 02:52:00,42.4,26.1,30.00,East,95,0.0,0.0,52,0.00,,---,0.00,VWS V14.00,2013-03-11 09:52:00,
2013-03-11 02:58:00,42.1,25.7,30.00,East,95,0.0,0.0,52,0.00,,---,0.00,VWS V14.00,2013-03-11 09:58:00,
2013-03-11 03:03:00,42.1,25.7,30.00,East,95,0.0,0.0,52,0.00,,---,0.00,VWS V14.00,2013-03-11 10:03:00,
2013-03-11 03:08:00,42.1,26.2,30.00,East,96,0.0,0.0,53,0.00,,---,0.00,VWS V14.00,2013-03-11 10:08:00,
2013-03-11 03:14:00,41.9,26.0,30.00,East,95,0.0,0.0,53,0.00,,---,0.00,VWS V14.00,2013-03-11 10:14:00,
2013-03-11 03:19:00,41.9,26.0,30.00,East,95,0.0,0.0,53,0.00,,---,0.00,VWS V14.00,2013-03-11 10:19:00,
2013-03-11 03:25:00,41.7,25.9,30.00,East,95,0.0,0.0,53,0.00,,---,0.00,VWS V14.00,2013-03-11 10:25:00,
2013-03-11 03:30:00,41.5,25.7,30.00,East,95,0.0,0.0,53,0.00,,---,0.00,VWS V14.00,2013-03-11 10:30:00,
2013-03-11 03:35:00,41.5,25.7,30.00,East,95,0.0,0.0,53,0.00,,---,0.00,VWS V14.00,2013-03-11 10:35:00,
2013-03-11 03:41:00,41.4,25.5,30.00,East,96,0.0,0.0,53,0.00,,---,0.00,VWS V14.00,2013-03-11 10:41:00,
2013-03-11 03:47:00,41.2,25.8,30.00,East,95,0.0,0.0,54,0.00,,---,0.00,VWS V14.00,2013-03-11 10:47:00,
2013-03-11 03:53:00,41.2,25.8,30.00,East,95,0.0,0.0,54,0.00,,---,0.00,VWS V14.00,2013-03-11 10:53:00,
2013-03-11 03:58:00,41.0,25.6,30.00,East,95,0.0,0.0,54,0.00,,---,0.00,VWS V14.00,2013-03-11 10:58:00,
2013-03-11 04:04:00,41.0,25.6,30.00,East,95,0.0,0.0,54,0.00,,---,0.00,VWS V14.00,2013-03-11 11:04:00,
2013-03-11 04:09:00,41.0,26.1,30.00,East,95,0.0,0.0,55,0.00,,---,0.00,VWS V14.00,2013-03-11 11:09:00,
2013-03-11 04:14:00,41.0,26.1,30.00,East,95,0.0,0.0,55,0.00,,---,0.00,VWS V14.00,2013-03-11 11:14:00,
2013-03-11 04:20:00,41.0,26.1,30.00,East,95,0.0,0.0,55,0.00,,---,0.00,VWS V14.00,2013-03-11 11:20:00,
2013-03-11 04:25:00,41.0,26.1,30.00,East,96,0.0,0.0,55,0.00,,---,0.00,VWS V14.00,2013-03-11 11:25:00,
2013-03-11 04:31:00,41.0,26.1,30.00,East,95,0.0,0.0,55,0.00,,---,0.00,VWS V14.00,2013-03-11 11:31:00,
2013-03-11 04:36:00,40.6,26.2,30.00,East,95,0.0,0.0,56,0.00,,---,0.00,VWS V14.00,2013-03-11 11:36:00,
2013-03-11 04:42:00,40.6,26.2,30.00,East,95,0.0,0.0,56,0.00,,---,0.00,VWS V14.00,2013-03-11 11:42:00,
2013-03-11 04:48:00,40.5,26.0,30.00,East,95,0.0,0.0,56,0.00,,---,0.00,VWS V14.00,2013-03-11 11:48:00,
2013-03-11 04:54:00,40.1,25.7,30.00,East,95,0.0,0.0,56,0.00,,---,0.00,VWS V14.00,2013-03-11 11:54:00,
2013-03-11 05:00:00,39.9,25.9,30.00,East,95,0.0,0.0,57,0.00,,---,0.00,VWS V14.00,2013-03-11 12:00:00,
2013-03-11 05:06:00,39.9,25.9,30.00,East,95,0.0,0.0,57,0.00,,---,0.00,VWS V14.00,2013-03-11 12:06:00,
2013-03-11 05:11:00,39.9,25.9,30.00,East,95,0.0,0.0,57,0.00,,---,0.00,VWS V14.00,2013-03-11 12:11:00,
2013-03-11 05:17:00,39.9,25.9,30.00,East,95,0.0,0.0,57,0.00,,---,0.00,VWS V14.00,2013-03-11 12:17:00,
2013-03-11 05:22:00,39.9,26.4,30.00,East,95,0.0,0.0,58,0.00,,---,0.00,VWS V14.00,2013-03-11 12:22:00,
2013-03-11 05:27:00,39.9,26.4,30.00,East,95,0.0,0.0,58,0.00,,---,0.00,VWS V14.00,2013-03-11 12:27:00,
2013-03-11 05:32:00,39.9,26.4,30.00,East,95,0.0,0.0,58,0.00,,---,0.00,VWS V14.00,2013-03-11 12:32:00,
2013-03-11 05:37:00,39.9,26.4,30.00,East,95,0.0,0.0,58,0.00,,---,0.00,VWS V14.00,2013-03-11 12:37:00,
2013-03-11 05:42:00,39.7,26.2,30.00,East,95,0.0,0.0,58,0.00,,---,0.00,VWS V14.00,2013-03-11 12:42:00,
2013-03-11 05:48:00,39.9,26.8,30.00,East,95,0.0,0.0,59,0.00,,---,0.00,VWS V14.00,2013-03-11 12:48:00,
2013-03-11 05:53:00,39.7,26.6,30.00,East,95,0.0,0.0,59,0.00,,---,0.00,VWS V14.00,2013-03-11 12:53:00,
2013-03-11 05:58:00,39.7,26.6,30.00,East,95,0.0,0.0,59,0.00,,---,0.00,VWS V14.00,2013-03-11 12:58:00,
2013-03-11 06:03:00,39.7,27.0,30.00,East,95,0.0,0.0,60,0.00,,---,0.00,VWS V14.00,2013-03-11 13:03:00,
2013-03-11 06:09:00,39.7,27.0,30.00,East,95,0.0,0.0,60,0.00,,---,0.00,VWS V14.00,2013-03-11 13:09:00,
2013-03-11 06:15:00,39.6,26.8,30.00,East,95,0.0,0.0,60,0.00,,---,0.00,VWS V14.00,2013-03-11 13:15:00,
2013-03-11 06:21:00,39.4,27.1,30.00,East,95,0.0,0.0,61,0.00,,---,0.00,VWS V14.00,2013-03-11 13:21:00,
2013-03-11 06:27:00,39.4,27.1,30.00,East,95,0.0,0.0,61,0.00,,---,0.00,VWS V14.00,2013-03-11 13:27:00,
2013-03-11 06:32:00,39.2,26.9,30.00,East,95,0.0,0.0,61,0.00,,---,0.00,VWS V14.00,2013-03-11 13:32:00,
2013-03-11 06:37:00,39.0,27.1,30.00,East,95,0.0,0.0,62,0.00,,---,0.00,VWS V14.00,2013-03-11 13:37:00,
2013-03-11 06:42:00,39.0,27.1,30.00,East,95,0.0,0.0,62,0.00,,---,0.00,VWS V14.00,2013-03-11 13:42:00,
2013-03-11 06:48:00,39.0,27.1,30.00,East,95,0.0,0.0,62,0.00,,---,0.00,VWS V14.00,2013-03-11 13:48:00,
2013-03-11 06:53:00,39.0,27.1,30.00,East,95,0.0,0.0,62,0.00,,---,0.00,VWS V14.00,2013-03-11 13:53:00,
2013-03-11 06:58:00,39.0,27.5,30.00,East,95,0.0,0.0,63,0.00,,---,0.00,VWS V14.00,2013-03-11 13:58:00,
2013-03-11 07:04:00,39.0,27.5,30.00,East,95,0.0,0.0,63,0.00,,---,0.00,VWS V14.00,2013-03-11 14:04:00,
2013-03-11 07:09:00,38.8,27.3,30.00,East,95,0.0,0.0,63,0.00,,---,0.00,VWS V14.00,2013-03-11 14:09:00,
2013-03-11 07:14:00,38.8,27.3,30.00,East,95,0.0,0.0,63,0.00,,---,0.00,VWS V14.00,2013-03-11 14:14:00,
2013-03-11 07:19:00,38.7,27.5,30.00,East,95,0.0,0.0,64,0.00,,---,0.00,VWS V14.00,2013-03-11 14:19:00,
2013-03-11 07:25:00,38.7,27.5,30.00,East,95,0.0,0.0,64,0.00,,---,0.00,VWS V14.00,2013-03-11 14:25:00,
2013-03-11 07:30:00,39.0,28.3,30.00,East,95,0.0,0.0,65,0.00,,---,0.00,VWS V14.00,2013-03-11 14:30:00,
2013-03-11 07:35:00,39.0,28.3,30.00,East,95,0.0,0.0,65,0.00,,---,0.00,VWS V14.00,2013-03-11 14:35:00,
2013-03-11 07:40:00,39.2,28.1,30.00,East,96,0.0,0.0,64,0.00,,---,0.00,VWS V14.00,2013-03-11 14:40:00,
2013-03-11 07:45:00,39.2,28.4,30.00,East,95,0.0,0.0,65,0.00,,---,0.00,VWS V14.00,2013-03-11 14:45:00,
2013-03-11 07:50:00,39.2,28.4,30.00,East,95,0.0,0.0,65,0.00,,---,0.00,VWS V14.00,2013-03-11 14:50:00,
2013-03-11 07:56:00,39.4,28.6,30.00,East,95,0.0,0.0,65,0.00,,---,0.00,VWS V14.00,2013-03-11 14:56:00,
2013-03-11 08:02:00,39.9,29.5,30.00,East,95,0.0,0.0,66,0.00,,---,0.00,VWS V14.00,2013-03-11 15:02:00,
2013-03-11 08:07:00,40.1,29.7,30.00,East,95,0.0,0.0,66,0.00,,---,0.00,VWS V14.00,2013-03-11 15:07:00,
2013-03-11 08:13:00,40.5,30.0,30.00,East,95,0.0,0.0,66,0.00,,---,0.00,VWS V14.00,2013-03-11 15:13:00,
2013-03-11 08:19:00,40.6,30.5,30.00,East,95,0.0,0.0,67,0.00,,---,0.00,VWS V14.00,2013-03-11 15:19:00,
2013-03-11 08:24:00,41.2,31.1,30.00,NE,54,0.0,0.0,67,0.00,,---,0.00,VWS V14.00,2013-03-11 15:24:00,
2013-03-11 08:29:00,41.9,31.8,30.00,NE,53,0.0,0.0,67,0.00,,---,0.00,VWS V14.00,2013-03-11 15:29:00,
2013-03-11 08:35:00,42.8,32.6,30.00,NNE,23,0.0,0.0,67,0.00,,---,0.00,VWS V14.00,2013-03-11 15:35:00,
2013-03-11 08:40:00,43.5,33.7,30.00,North,0,3.6,4.0,68,0.00,,---,0.00,VWS V14.00,2013-03-11 15:40:00,
2013-03-11 08:45:00,44.2,34.7,30.00,North,349,2.7,3.1,69,0.00,,---,0.00,VWS V14.00,2013-03-11 15:45:00,
2013-03-11 08:51:00,45.3,35.8,30.03,North,0,2.7,4.9,69,0.00,,---,0.00,VWS V14.00,2013-03-11 15:51:00,
2013-03-11 08:56:00,46.2,36.6,30.03,North,353,3.1,3.6,69,0.00,,---,0.00,VWS V14.00,2013-03-11 15:56:00,
2013-03-11 09:02:00,47.7,38.4,30.03,North,6,0.0,0.0,70,0.00,,---,0.00,VWS V14.00,2013-03-11 16:02:00,
2013-03-11 09:08:00,48.7,39.4,30.03,North,349,3.6,3.6,70,0.00,,---,0.00,VWS V14.00,2013-03-11 16:08:00,
2013-03-11 09:13:00,49.6,40.3,30.03,North,353,0.0,0.0,70,0.00,,---,0.00,VWS V14.00,2013-03-11 16:13:00,
2013-03-11 09:18:00,51.1,41.3,30.03,North,357,0.0,0.0,69,0.00,,---,0.00,VWS V14.00,2013-03-11 16:18:00,
2013-03-11 09:24:00,52.2,41.2,30.03,North,357,0.0,0.0,66,0.00,,---,0.00,VWS V14.00,2013-03-11 16:24:00,
2013-03-11 09:29:00,53.1,41.2,30.03,NNW,342,0.0,0.0,64,0.00,,---,0.00,VWS V14.00,2013-03-11 16:29:00,
2013-03-11 09:34:00,53.4,40.7,30.03,NNE,17,0.0,0.0,62,0.00,,---,0.00,VWS V14.00,2013-03-11 16:34:00,
2013-03-11 09:39:00,54.5,40.9,30.03,North,3,0.0,0.0,60,0.00,,---,0.00,VWS V14.00,2013-03-11 16:39:00,
2013-03-11 09:45:00,55.6,39.7,30.03,NNW,345,0.0,0.0,55,0.00,,---,0.00,VWS V14.00,2013-03-11 16:45:00,
2013-03-11 09:51:00,55.9,39.1,30.03,NE,46,0.0,0.0,53,0.00,,---,0.00,VWS V14.00,2013-03-11 16:51:00,
2013-03-11 09:56:00,56.8,38.4,30.03,North,353,0.0,0.0,50,0.00,,---,0.00,VWS V14.00,2013-03-11 16:56:00,
2013-03-11 10:02:00,57.4,38.4,30.03,NW,316,0.0,0.0,49,0.00,,---,0.00,VWS V14.00,2013-03-11 17:02:00,
2013-03-11 10:07:00,57.9,38.4,30.03,West,277,2.7,3.1,48,0.00,,---,0.00,VWS V14.00,2013-03-11 17:07:00,
2013-03-11 10:12:00,58.5,36.7,30.03,NW,318,0.0,0.0,44,0.00,,---,0.00,VWS V14.00,2013-03-11 17:12:00,
2013-03-11 10:17:00,58.8,37.5,30.03,NNW,340,0.0,0.0,45,0.00,,---,0.00,VWS V14.00,2013-03-11 17:17:00,
2013-03-11 10:23:00,59.2,36.1,30.00,North,353,0.0,0.0,42,0.00,,---,0.00,VWS V14.00,2013-03-11 17:23:00,
2013-03-11 10:28:00,59.7,36.0,30.00,ENE,70,0.0,0.0,41,0.00,,---,0.00,VWS V14.00,2013-03-11 17:28:00,
2013-03-11 10:33:00,61.0,37.1,30.00,ENE,59,0.0,0.0,41,0.00,,---,0.00,VWS V14.00,2013-03-11 17:33:00,
2013-03-11 10:39:00,61.9,36.0,30.00,NE,56,0.0,0.0,38,0.00,,---,0.00,VWS V14.00,2013-03-11 17:39:00,
2013-03-11 10:44:00,62.2,36.3,30.00,WNW,291,0.0,0.0,38,0.00,,---,0.00,VWS V14.00,2013-03-11 17:44:00,
2013-03-11 10:50:00,62.2,35.7,30.00,South,173,0.0,0.0,37,0.00,,---,0.00,VWS V14.00,2013-03-11 17:50:00,
2013-03-11 10:55:00,61.9,34.0,30.00,South,181,0.0,2.2,35,0.00,,---,0.00,VWS V14.00,2013-03-11 17:55:00,
2013-03-11 11:00:00,61.9,34.0,30.00,SW,234,3.1,3.1,35,0.00,,---,0.00,VWS V14.00,2013-03-11 18:00:00,
2013-03-11 11:06:00,62.2,34.3,30.00,North,357,0.0,3.6,35,0.00,,---,0.00,VWS V14.00,2013-03-11 18:06:00,
2013-03-11 11:11:00,62.6,33.1,30.00,North,357,5.4,5.4,33,0.00,,---,0.00,VWS V14.00,2013-03-11 18:11:00,
2013-03-11 11:16:00,62.4,31.4,30.00,West,266,3.6,3.6,31,0.00,,---,0.00,VWS V14.00,2013-03-11 18:16:00,
2013-03-11 11:22:00,62.6,31.6,30.00,NNW,329,5.4,5.8,31,0.00,,---,0.00,VWS V14.00,2013-03-11 18:22:00,
2013-03-11 11:27:00,62.6,31.6,30.00,NNW,332,5.4,5.4,31,0.00,,---,0.00,VWS V14.00,2013-03-11 18:27:00,
2013-03-11 11:33:00,63.5,33.1,30.00,West,281,3.1,3.1,32,0.00,,---,0.00,VWS V14.00,2013-03-11 18:33:00,
2013-03-11 11:39:00,64.4,33.1,30.00,NNE,16,0.0,2.7,31,0.00,,---,0.00,VWS V14.00,2013-03-11 18:39:00,
2013-03-11 11:44:00,65.5,34.1,30.00,SSW,205,0.0,0.0,31,0.00,,---,0.00,VWS V14.00,2013-03-11 18:44:00,
2013-03-11 11:49:00,66.2,33.0,30.00,East,83,0.0,0.0,29,0.00,,---,0.00,VWS V14.00,2013-03-11 18:49:00,
2013-03-11 11:54:00,66.2,33.0,30.00,WSW,257,0.0,2.7,29,0.00,,---,0.00,VWS V14.00,2013-03-11 18:54:00,
2013-03-11 11:59:00,66.7,32.6,30.00,West,273,4.0,4.0,28,0.00,,---,0.00,VWS V14.00,2013-03-11 18:59:00,
2013-03-11 12:04:00,66.6,31.6,30.00,North,357,0.0,0.0,27,0.00,,---,0.00,VWS V14.00,2013-03-11 19:04:00,
2013-03-11 12:10:00,66.4,31.4,30.00,SSW,195,2.2,3.1,27,0.00,,---,0.00,VWS V14.00,2013-03-11 19:10:00,
2013-03-11 12:15:00,66.4,29.5,30.00,WNW,295,3.6,4.0,25,0.00,,---,0.00,VWS V14.00,2013-03-11 19:15:00,
2013-03-11 12:21:00,66.7,30.8,30.00,West,264,5.4,5.4,26,0.00,,---,0.00,VWS V14.00,2013-03-11 19:21:00,
2013-03-11 12:26:00,66.7,29.8,30.00,SW,235,2.7,3.6,25,0.00,,---,0.00,VWS V14.00,2013-03-11 19:26:00,
2013-03-11 12:32:00,67.1,30.1,29.97,North,353,0.0,0.0,25,0.00,,---,0.00,VWS V14.00,2013-03-11 19:32:00,
2013-03-11 12:37:00,66.9,29.0,29.97,NW,316,0.0,3.1,24,0.00,,---,0.00,VWS V14.00,2013-03-11 19:37:00,
2013-03-11 12:43:00,67.1,29.1,29.97,NNW,332,0.0,0.0,24,0.00,,---,0.00,VWS V14.00,2013-03-11 19:43:00,
2013-03-11 12:49:00,67.1,28.1,29.97,North,357,6.3,6.3,23,0.00,,---,0.00,VWS V14.00,2013-03-11 19:49:00,
2013-03-11 12:54:00,67.1,29.1,29.97,North,357,0.0,0.0,24,0.00,,---,0.00,VWS V14.00,2013-03-11 19:54:00,
2013-03-11 12:59:00,67.6,29.6,29.97,SW,233,2.7,2.7,24,0.00,,---,0.00,VWS V14.00,2013-03-11 19:59:00,
2013-03-11 13:05:00,68.4,29.1,29.97,West,278,4.0,5.4,23,0.00,,---,0.00,VWS V14.00,2013-03-11 20:05:00,
2013-03-11 13:12:00,68.7,29.5,29.97,North,353,0.0,0.0,23,0.00,,---,0.00,VWS V14.00,2013-03-11 20:12:00,
2013-03-11 13:17:00,68.7,29.5,29.97,NNW,348,4.5,4.5,23,0.00,,---,0.00,VWS V14.00,2013-03-11 20:17:00,
2013-03-11 13:23:00,69.3,29.9,29.97,North,0,4.0,6.3,23,0.00,,---,0.00,VWS V14.00,2013-03-11 20:23:00,
2013-03-11 13:28:00,69.3,29.9,29.97,WNW,283,3.1,5.4,23,0.00,,---,0.00,VWS V14.00,2013-03-11 20:28:00,
2013-03-11 13:33:00,69.1,29.8,29.97,NNW,331,4.0,4.0,23,0.00,,---,0.00,VWS V14.00,2013-03-11 20:33:00,
2013-03-11 13:38:00,69.3,29.9,29.94,North,0,4.9,4.9,23,0.00,,---,0.00,VWS V14.00,2013-03-11 20:38:00,
2013-03-11 13:43:00,69.3,29.9,29.94,NNW,337,3.1,6.7,23,0.00,,---,0.00,VWS V14.00,2013-03-11 20:43:00,
2013-03-11 13:48:00,69.4,30.1,29.94,SE,135,2.7,3.1,23,0.00,,---,0.00,VWS V14.00,2013-03-11 20:48:00,
2013-03-11 13:53:00,70.5,29.9,29.94,WNW,290,3.6,3.6,22,0.00,,---,0.00,VWS V14.00,2013-03-11 20:53:00,
2013-03-11 13:59:00,70.7,30.0,29.94,WSW,237,0.0,2.7,22,0.00,,---,0.00,VWS V14.00,2013-03-11 20:59:00,
2013-03-11 14:04:00,70.9,30.2,29.94,NW,326,3.6,3.6,22,0.00,,---,0.00,VWS V14.00,2013-03-11 21:04:00,
2013-03-11 14:09:00,71.2,30.5,29.94,North,10,3.6,3.6,22,0.00,,---,0.00,VWS V14.00,2013-03-11 21:09:00,
2013-03-11 14:14:00,70.7,30.0,29.94,NW,313,3.6,3.6,22,0.00,,---,0.00,VWS V14.00,2013-03-11 21:14:00,
2013-03-11 14:20:00,70.5,29.9,29.94,WSW,247,4.9,4.9,22,0.00,,---,0.00,VWS V14.00,2013-03-11 21:20:00,
2013-03-11 14:25:00,71.1,30.3,29.94,NNW,337,4.0,5.4,22,0.00,,---,0.00,VWS V14.00,2013-03-11 21:25:00,
2013-03-11 14:30:00,71.4,30.6,29.94,NNW,342,0.0,3.6,22,0.00,,---,0.00,VWS V14.00,2013-03-11 21:30:00,
2013-03-11 14:36:00,72.0,29.9,29.94,SSW,205,4.0,4.9,21,0.00,,---,0.00,VWS V14.00,2013-03-11 21:36:00,
2013-03-11 14:41:00,72.5,30.4,29.94,South,190,0.0,3.1,21,0.00,,---,0.00,VWS V14.00,2013-03-11 21:41:00,
2013-03-11 14:46:00,72.5,27.9,29.94,SW,235,2.2,3.1,19,0.00,,---,0.00,VWS V14.00,2013-03-11 21:46:00,
2013-03-11 14:51:00,72.5,27.9,29.91,West,272,3.6,3.6,19,0.00,,---,0.00,VWS V14.00,2013-03-11 21:51:00,
2013-03-11 14:57:00,72.0,27.5,29.91,NE,34,0.0,0.0,19,0.00,,---,0.00,VWS V14.00,2013-03-11 21:57:00,
2013-03-11 15:02:00,72.1,27.6,29.91,WSW,244,4.0,4.9,19,0.00,,---,0.00,VWS V14.00,2013-03-11 22:02:00,
2013-03-11 15:07:00,72.1,27.6,29.91,SSE,167,3.1,3.1,19,0.00,,---,0.00,VWS V14.00,2013-03-11 22:07:00,
2013-03-11 15:13:00,72.9,28.2,29.91,East,89,2.2,2.7,19,0.00,,---,0.00,VWS V14.00,2013-03-11 22:13:00,
2013-03-11 15:18:00,73.2,28.5,29.91,North,8,3.6,3.6,19,0.00,,---,0.00,VWS V14.00,2013-03-11 22:18:00,
2013-03-11 15:23:00,72.9,24.1,29.91,WNW,303,4.9,6.7,16,0.00,,---,0.00,VWS V14.00,2013-03-11 22:23:00,
2013-03-11 15:28:00,72.3,23.6,29.91,South,175,2.7,2.7,16,0.00,,---,0.00,VWS V14.00,2013-03-11 22:28:00,
2013-03-11 15:34:00,72.7,23.9,29.91,WSW,243,5.8,5.8,16,0.00,,---,0.00,VWS V14.00,2013-03-11 22:34:00,
2013-03-11 15:39:00,72.5,23.8,29.91,NW,308,0.0,4.0,16,0.00,,---,0.00,VWS V14.00,2013-03-11 22:39:00,
2013-03-11 15:44:00,72.3,23.6,29.91,WNW,283,5.4,5.4,16,0.00,,---,0.00,VWS V14.00,2013-03-11 22:44:00,
2013-03-11 15:49:00,72.5,23.8,29.91,North,0,4.9,5.4,16,0.00,,---,0.00,VWS V14.00,2013-03-11 22:49:00,
2013-03-11 15:54:00,72.5,23.8,29.91,West,273,2.2,4.0,16,0.00,,---,0.00,VWS V14.00,2013-03-11 22:54:00,
2013-03-11 15:59:00,72.5,23.8,29.91,South,170,0.0,3.6,16,0.00,,---,0.00,VWS V14.00,2013-03-11 22:59:00,
2013-03-11 16:04:00,73.0,24.2,29.88,WSW,252,0.0,0.0,16,0.00,,---,0.00,VWS V14.00,2013-03-11 23:04:00,
2013-03-11 16:10:00,73.6,24.7,29.88,SSE,149,3.1,3.6,16,0.00,,---,0.00,VWS V14.00,2013-03-11 23:10:00,
2013-03-11 16:16:00,74.1,25.1,29.88,SW,223,3.6,3.6,16,0.00,,---,0.00,VWS V14.00,2013-03-11 23:16:00,
2013-03-11 16:22:00,74.1,25.1,29.88,West,269,5.4,5.8,16,0.00,,---,0.00,VWS V14.00,2013-03-11 23:22:00,
2013-03-11 16:27:00,73.8,24.8,29.88,West,273,6.3,6.3,16,0.00,,---,0.00,VWS V14.00,2013-03-11 23:27:00,
2013-03-11 16:35:00,73.6,24.7,29.88,NNW,341,4.0,4.9,16,0.00,,---,0.00,VWS V14.00,2013-03-11 23:35:00,
2013-03-11 16:56:00,73.0,24.2,29.88,SSE,165,3.1,4.0,16,0.00,,---,0.00,VWS V14.00,2013-03-11 23:56:00,
2013-03-11 17:01:00,73.0,24.2,29.88,West,275,3.6,6.3,16,0.00,,---,0.00,VWS V14.00,2013-03-12 00:01:00,
2013-03-11 17:07:00,72.9,24.1,29.88,SSW,193,2.7,2.7,16,0.00,,---,0.00,VWS V14.00,2013-03-12 00:07:00,
2013-03-11 17:12:00,72.9,24.1,29.88,SSE,153,4.0,5.4,16,0.00,,---,0.00,VWS V14.00,2013-03-12 00:12:00,
2013-03-11 17:18:00,72.7,23.9,29.88,SSE,156,2.7,6.3,16,0.00,,---,0.00,VWS V14.00,2013-03-12 00:18:00,
2013-03-11 17:23:00,72.5,23.8,29.88,South,188,4.9,6.3,16,0.00,,---,0.00,VWS V14.00,2013-03-12 00:23:00,
2013-03-11 17:28:00,72.3,23.6,29.88,SSE,167,5.8,5.8,16,0.00,,---,0.00,VWS V14.00,2013-03-12 00:28:00,
2013-03-11 17:33:00,72.1,23.5,29.88,SSE,150,2.7,4.0,16,0.00,,---,0.00,VWS V14.00,2013-03-12 00:33:00,
2013-03-11 17:38:00,71.8,23.2,29.88,WSW,237,2.7,5.4,16,0.00,,---,0.00,VWS V14.00,2013-03-12 00:38:00,
2013-03-11 17:43:00,71.8,23.2,29.88,South,169,3.6,4.0,16,0.00,,---,0.00,VWS V14.00,2013-03-12 00:43:00,
2013-03-11 17:49:00,71.6,23.1,29.88,SE,137,3.1,3.6,16,0.00,,---,0.00,VWS V14.00,2013-03-12 00:49:00,
2013-03-11 17:55:00,71.2,24.2,29.88,SSE,152,4.0,7.2,17,0.00,,---,0.00,VWS V14.00,2013-03-12 00:55:00,
2013-03-11 18:01:00,70.5,26.3,29.85,SSE,155,3.6,3.6,19,0.00,,---,0.00,VWS V14.00,2013-03-12 01:01:00,
2013-03-11 18:07:00,70.2,26.0,29.85,South,171,8.3,8.3,19,0.00,,---,0.00,VWS V14.00,2013-03-12 01:07:00,
2013-03-11 18:26:00,68.5,25.9,29.88,South,169,5.8,5.8,20,0.00,,---,0.00,VWS V14.00,2013-03-12 01:26:00,
2013-03-11 18:32:00,68.2,25.6,29.85,SE,141,3.6,3.6,20,0.00,,---,0.00,VWS V14.00,2013-03-12 01:32:00,
2013-03-11 18:38:00,67.8,25.3,29.85,SSE,152,4.0,6.3,20,0.00,,---,0.00,VWS V14.00,2013-03-12 01:38:00,
2013-03-11 18:43:00,67.5,27.3,29.85,SSE,159,3.6,6.3,22,0.00,,---,0.00,VWS V14.00,2013-03-12 01:43:00,
2013-03-11 18:48:00,67.1,27.0,29.85,SE,137,3.6,4.0,22,0.00,,---,0.00,VWS V14.00,2013-03-12 01:48:00,
2013-03-11 18:54:00,66.6,26.6,29.85,ESE,122,2.7,5.4,22,0.00,,---,0.00,VWS V14.00,2013-03-12 01:54:00,
2013-03-11 19:00:00,66.2,26.3,29.85,ESE,114,2.2,3.6,22,0.00,,---,0.00,VWS V14.00,2013-03-12 02:00:00,
2013-03-11 19:06:00,65.7,26.9,29.85,ESE,123,0.0,2.7,23,0.00,,---,0.00,VWS V14.00,2013-03-12 02:06:00,
2013-03-11 19:11:00,65.1,26.4,29.85,SE,138,3.1,3.6,23,0.00,,---,0.00,VWS V14.00,2013-03-12 02:11:00,
2013-03-11 19:16:00,64.4,25.8,29.85,SE,146,0.0,4.0,23,0.00,,---,0.00,VWS V14.00,2013-03-12 02:16:00,
2013-03-11 19:22:00,64.0,26.5,29.85,ESE,121,2.7,3.1,24,0.00,,---,0.00,VWS V14.00,2013-03-12 02:22:00,
2013-03-11 19:27:00,63.5,26.1,29.85,SE,130,2.7,3.1,24,0.00,,---,0.00,VWS V14.00,2013-03-12 02:27:00,
2013-03-11 19:32:00,63.0,25.6,29.85,ESE,114,2.7,2.7,24,0.00,,---,0.00,VWS V14.00,2013-03-12 02:32:00,
2013-03-11 19:37:00,62.6,25.3,29.85,ESE,114,0.0,0.0,24,0.00,,---,0.00,VWS V14.00,2013-03-12 02:37:00,
2013-03-11 19:42:00,62.1,25.9,29.85,ESE,114,0.0,0.0,25,0.00,,---,0.00,VWS V14.00,2013-03-12 02:42:00,
2013-03-11 19:48:00,61.5,25.4,29.85,ESE,106,0.0,0.0,25,0.00,,---,0.00,VWS V14.00,2013-03-12 02:48:00,
2013-03-11 19:53:00,61.2,25.1,29.85,ESE,104,0.0,0.0,25,0.00,,---,0.00,VWS V14.00,2013-03-12 02:53:00,
2013-03-11 19:58:00,60.6,25.6,29.85,ESE,104,0.0,0.0,26,0.00,,---,0.00,VWS V14.00,2013-03-12 02:58:00,
2013-03-11 20:03:00,60.1,25.1,29.85,ESE,104,0.0,0.0,26,0.00,,---,0.00,VWS V14.00,2013-03-12 03:03:00,
2013-03-11 20:08:00,59.5,24.6,29.85,ESE,104,0.0,0.0,26,0.00,,---,0.00,VWS V14.00,2013-03-12 03:08:00,
2013-03-11 20:13:00,59.0,25.1,29.85,ESE,104,0.0,0.0,27,0.00,,---,0.00,VWS V14.00,2013-03-12 03:13:00,
2013-03-11 20:19:00,58.3,25.3,29.85,ESE,104,0.0,0.0,28,0.00,,---,0.00,VWS V14.00,2013-03-12 03:19:00,
2013-03-11 20:24:00,57.7,25.7,29.85,ESE,104,0.0,0.0,29,0.00,,---,0.00,VWS V14.00,2013-03-12 03:24:00,
2013-03-11 20:29:00,57.2,25.2,29.85,ESE,104,0.0,0.0,29,0.00,,---,0.00,VWS V14.00,2013-03-12 03:29:00,
2013-03-11 20:34:00,56.7,25.6,29.85,ESE,104,0.0,0.0,30,0.00,,---,0.00,VWS V14.00,2013-03-12 03:34:00,
2013-03-11 20:40:00,56.7,26.4,29.85,ESE,104,0.0,0.0,31,0.00,,---,0.00,VWS V14.00,2013-03-12 03:40:00,
2013-03-11 20:45:00,56.5,27.0,29.85,ESE,104,0.0,0.0,32,0.00,,---,0.00,VWS V14.00,2013-03-12 03:45:00,
2013-03-11 20:50:00,56.3,26.8,29.85,ESE,104,0.0,0.0,32,0.00,,---,0.00,VWS V14.00,2013-03-12 03:50:00,
2013-03-11 20:56:00,55.9,27.3,29.85,ESE,104,0.0,0.0,33,0.00,,---,0.00,VWS V14.00,2013-03-12 03:56:00,
2013-03-11 21:00:00,55.8,27.8,29.85,ESE,103,0.0,0.0,34,0.00,,---,0.00,VWS V14.00,2013-03-12 04:00:00,
2013-03-11 21:01:00,55.8,27.8,29.88,ESE,104,0.0,0.0,34,0.00,,---,0.00,VWS V14.00,2013-03-12 04:01:00,
2013-03-11 21:02:00,55.8,27.8,29.88,ESE,104,0.0,0.0,34,0.00,,---,0.00,VWS V14.00,2013-03-12 04:02:00,
2013-03-11 21:07:00,55.0,27.9,29.88,ESE,104,0.0,0.0,35,0.00,,---,0.00,VWS V14.00,2013-03-12 04:07:00,
2013-03-11 21:08:00,55.0,27.9,29.88,ESE,103,0.0,0.0,35,0.00,,---,0.00,VWS V14.00,2013-03-12 04:08:00,
2013-03-11 21:13:00,54.9,27.8,29.88,ESE,104,0.0,0.0,35,0.00,,---,0.00,VWS V14.00,2013-03-12 04:13:00,
2013-03-11 21:19:00,54.9,28.4,29.88,East,96,0.0,0.0,36,0.00,,---,0.00,VWS V14.00,2013-03-12 04:19:00,
2013-03-11 21:24:00,54.7,28.3,29.88,East,100,2.2,2.7,36,0.00,,---,0.00,VWS V14.00,2013-03-12 04:24:00,
2013-03-11 21:30:00,54.5,28.1,29.88,East,96,0.0,0.0,36,0.00,,---,0.00,VWS V14.00,2013-03-12 04:30:00,
2013-03-11 21:35:00,54.5,28.1,29.88,East,96,0.0,0.0,36,0.00,,---,0.00,VWS V14.00,2013-03-12 04:35:00,
2013-03-11 21:41:00,54.1,27.8,29.88,East,91,0.0,0.0,36,0.00,,---,0.00,VWS V14.00,2013-03-12 04:41:00,
2013-03-11 21:47:00,54.0,27.6,29.88,East,85,0.0,0.0,36,0.00,,---,0.00,VWS V14.00,2013-03-12 04:47:00,
2013-03-11 21:52:00,53.8,28.1,29.88,East,85,0.0,0.0,37,0.00,,---,0.00,VWS V14.00,2013-03-12 04:52:00,
2013-03-11 21:57:00,53.6,28.0,29.88,East,85,0.0,0.0,37,0.00,,---,0.00,VWS V14.00,2013-03-12 04:57:00,
2013-03-11 22:02:00,53.2,27.7,29.88,East,85,0.0,0.0,37,0.00,,---,0.00,VWS V14.00,2013-03-12 05:02:00,
2013-03-11 22:08:00,53.2,27.7,29.88,East,85,0.0,0.0,37,0.00,,---,0.00,VWS V14.00,2013-03-12 05:08:00,
2013-03-11 22:13:00,52.5,27.7,29.88,East,85,0.0,0.0,38,0.00,,---,0.00,VWS V14.00,2013-03-12 05:13:00,
2013-03-11 22:19:00,52.3,27.5,29.88,East,85,0.0,0.0,38,0.00,,---,0.00,VWS V14.00,2013-03-12 05:19:00,
2013-03-11 22:24:00,51.8,27.0,29.88,East,86,0.0,0.0,38,0.00,,---,0.00,VWS V14.00,2013-03-12 05:24:00,
2013-03-11 22:29:00,51.8,27.0,29.88,East,85,0.0,0.0,38,0.00,,---,0.00,VWS V14.00,2013-03-12 05:29:00,
2013-03-11 22:35:00,51.8,27.0,29.88,East,86,0.0,0.0,38,0.00,,---,0.00,VWS V14.00,2013-03-12 05:35:00,
2013-03-11 22:41:00,51.3,27.8,29.88,East,86,0.0,0.0,40,0.00,,---,0.00,VWS V14.00,2013-03-12 05:41:00,
2013-03-11 22:46:00,51.1,27.6,29.88,East,86,0.0,0.0,40,0.00,,---,0.00,VWS V14.00,2013-03-12 05:46:00,
2013-03-11 22:51:00,50.7,27.3,29.88,East,86,0.0,0.0,40,0.00,,---,0.00,VWS V14.00,2013-03-12 05:51:00,
2013-03-11 22:56:00,50.5,27.7,29.88,East,85,0.0,0.0,41,0.00,,---,0.00,VWS V14.00,2013-03-12 05:56:00,
2013-03-11 23:02:00,50.2,27.4,29.88,East,85,0.0,0.0,41,0.00,,---,0.00,VWS V14.00,2013-03-12 06:02:00,
2013-03-11 23:08:00,50.2,27.4,29.88,East,86,0.0,0.0,41,0.00,,---,0.00,VWS V14.00,2013-03-12 06:08:00,
2013-03-11 23:13:00,49.8,27.7,29.88,East,86,0.0,0.0,42,0.00,,---,0.00,VWS V14.00,2013-03-12 06:13:00,
2013-03-11 23:19:00,49.6,28.1,29.88,East,85,0.0,0.0,43,0.00,,---,0.00,VWS V14.00,2013-03-12 06:19:00,
2013-03-11 23:25:00,49.5,28.5,29.88,East,86,0.0,0.0,44,0.00,,---,0.00,VWS V14.00,2013-03-12 06:25:00,
2013-03-11 23:30:00,49.3,28.3,29.88,East,86,0.0,0.0,44,0.00,,---,0.00,VWS V14.00,2013-03-12 06:30:00,
2013-03-11 23:35:00,49.3,28.3,29.88,East,86,0.0,0.0,44,0.00,,---,0.00,VWS V14.00,2013-03-12 06:35:00,
2013-03-11 23:40:00,48.9,28.5,29.88,East,85,0.0,0.0,45,0.00,,---,0.00,VWS V14.00,2013-03-12 06:40:00,
2013-03-11 23:46:00,48.9,28.5,29.88,East,86,0.0,0.0,45,0.00,,---,0.00,VWS V14.00,2013-03-12 06:46:00,
2013-03-11 23:51:00,48.7,28.9,29.88,East,86,0.0,0.0,46,0.00,,---,0.00,VWS V14.00,2013-03-12 06:51:00,
2013-03-11 23:56:00,48.6,28.7,29.88,East,86,0.0,0.0,46,0.00,,---,0.00,VWS V14.00,2013-03-12 06:56:00,